Simultaneous Nadir Overpasses (SNOs) Predictions

Prediction of SNOs between METOP-C and LANDSAT-8 Satellite Orbit:

Table of predicted SNOs for the next 14.0 days since TLE Epoch: 5/22/2020
Index Date (METOP-C) Time (METOP-C) Lat,Lon (METOP-C) SZA (METOP-C ) Date (LANDSAT-8) Time (LANDSAT-8) Lat,Lon (LANDSAT-8) SZA (LANDSAT-8 ) Distance(km) Time Diff (sec)
1 05/24/2020 02:34:09 81.12,-178.79 62.51 05/24/2020 02:34:12 81.12,-178.65 62.52 2.43 3
2 05/24/2020 03:24:48 -81.15, -10.55 117.38 05/24/2020 03:23:38 -81.14, -10.67 117.43 2.11 70
3 05/26/2020 21:17:52 -81.11, 80.15 118.01 05/26/2020 21:19:02 -81.11, 80.01 117.99 2.35 70
4 05/26/2020 22:08:30 81.14,-111.76 62.09 05/26/2020 22:08:27 81.13,-111.95 62.07 3.32 3
5 05/29/2020 16:52:15 -81.11, 146.47 118.47 05/29/2020 16:53:18 -81.10, 146.34 118.46 2.27 63
6 05/29/2020 17:42:53 81.13, -45.49 61.63 05/29/2020 17:42:43 81.13, -45.64 61.60 2.68 10
7 06/01/2020 12:26:36 -81.12,-146.85 118.83 06/01/2020 12:27:32 -81.12,-146.99 118.82 2.34 56
8 06/01/2020 13:17:14 81.14, 21.14 61.25 06/01/2020 13:16:57 81.14, 21.01 61.23 2.25 17
9 06/04/2020 08:00:59 -81.11, -80.56 119.20 06/04/2020 08:01:48 -81.11, -80.70 119.20 2.63 49




NCC Satellite Simultaneous Nadir Overpasses (SNOs) Prediction Service
